Home > Weather > Pictou County > Past weeks

Flag for Canada Weather for the Past 2 Weeks in Pictou County, Nova Scotia, Canada

Now
39 °F

Passing clouds.


Feels Like: 32 °F
Forecast: 33 / 42 °F
Wind: 10 mph from West

Location: Charlottetown

Current Time: Apr 29, 2016 at 11:38:42 AM

Latest Report: Apr 29, 2016 at 11:00 AM


Visibility: 15 mi

Pressure: 30.14 "Hg

Humidity: 48%

Dew Point: 21 °F

Location of Pictou CountyLocation

Historic Weather in Pictou County — Graph

°F

Pictou County Temperature Yesterday

Maximum temperature yesterday: 34 °F (at 12:00 AM)
Minimum temperature yesterday: 28 °F (at 5:00 AM)
Average temperature yesterday: 31 °F

High & Low Weather Summary for the Past Weeks

 TemperatureHumidityPressure
High59 °F (Apr 23, 1:00 PM)100% (Apr 15, 2:00 PM)30.56 "Hg (Apr 15, 2:00 PM)
Low21 °F (Apr 19, 2:00 AM)27% (Apr 27, 2:00 PM)29.71 "Hg (Apr 21, 5:00 PM)
Average36 °F70%30.03 "Hg
* Reported Apr 14 10:00 AM — Apr 29 10:00 AM, Pictou County, Weather by CustomWeather, © 2016

Note: Actual official high and low records may vary slightly from our data, if they occured in-between our weather recording intervals... More about our weather records

Advertising

Pictou County Weather History for the Previous 24 Hours

Scroll right to see more
 ConditionsComfort  
Time TempWeatherWind HumidityBarometerVisibility
10:00 AM
Fri, Apr 29
37 °FPassing clouds.7 mph48%30.14 "Hg15 mi
9:00 AM36 °FPassing clouds.8 mph60%30.15 "Hg15 mi
8:00 AM32 °FPassing clouds.9 mph64%30.14 "Hg15 mi
7:00 AM30 °FPassing clouds.8 mph55%30.11 "Hg15 mi
6:00 AM27 °FPassing clouds.7 mph64%30.10 "Hg15 mi
5:00 AM27 °FClear.7 mph59%30.08 "Hg15 mi
4:00 AM28 °FClear.8 mph51%30.08 "Hg15 mi
3:00 AM28 °FClear.8 mph55%30.07 "Hg15 mi
2:00 AM27 °FPassing clouds.7 mph59%30.08 "Hg15 mi
1:00 AM28 °FPassing clouds.7 mph51%30.09 "Hg15 mi
12:00 AM27 °FPassing clouds.7 mph54%30.08 "Hg15 mi
11:00 PM
Thu, Apr 28
28 °FPassing clouds.7 mph51%30.07 "Hg15 mi
10:00 PM30 °FPassing clouds.6 mph43%30.06 "Hg15 mi
9:00 PM30 °FPassing clouds.3 mph43%30.04 "Hg15 mi
8:00 PM32 °FPassing clouds.6 mph40%30.01 "Hg15 mi
7:00 PM34 °FPassing clouds.12 mph38%30.00 "Hg15 mi
6:00 PM34 °FPassing clouds.10 mph41%29.98 "Hg15 mi
5:00 PM34 °FBroken clouds.13 mph48%29.96 "Hg15 mi
4:00 PM32 °FPartly sunny.12 mph55%29.96 "Hg15 mi
3:00 PM30 °FSnow flurries. Broken clouds.10 mph69%29.95 "Hg15 mi
2:00 PM30 °FSnow flurries. Broken clouds.16 mph59%29.94 "Hg15 mi
1:00 PM30 °FSnow flurries. Partly sunny.16 mph55%29.91 "Hg15 mi
12:00 PM30 °FSnow flurries. Partly sunny.18 mph55%29.90 "Hg15 mi
11:00 AM30 °FPartly sunny.13 mph64%29.89 "Hg15 mi
Weather by CustomWeather, © 2016

See weather overviewHow to use our weather pages